Overview Statistics Trail Chart Weather Telemetry Raw packets
 

This is the latest recevied weather packets stored in our database for station/object KC2GYU. If no packets are shown the sender has not sent any weather packets the latest 10 day(s).

<< 4 5 6 7 8 9 10 >>
Time Temp. Humidity Pressure Rain* Wind** Luminosity Snow
1778096248 19.44° C 87% 1009.1 hPa 0 mm - 253 W/m² -
1778095944 19.44° C 87% 1009.4 hPa 0 mm - 174 W/m² -
1778095641 19.44° C 87% 1009.6 hPa 0 mm - 148 W/m² -
1778095338 19.44° C 87% 1009.3 hPa 0 mm - 289 W/m² -
1778095029 19.44° C 87% 1009.3 hPa 0 mm - 191 W/m² -
1778094725 19.44° C 86% 1009.5 hPa 0 mm - 188 W/m² -
1778094423 20° C 86% 1009.6 hPa 0 mm - 285 W/m² -
1778094119 20° C 86% 1009.5 hPa 0 mm - 382 W/m² -
1778093816 20° C 86% 1009.4 hPa 0 mm - 287 W/m² -
1778093512 20° C 86% 1009.8 hPa 0 mm - 391 W/m² -
1778093205 20° C 87% 1009.7 hPa 0 mm - 389 W/m² -
1778092901 19.44° C 88% 1009.8 hPa 0 mm - 385 W/m² -
1778092598 18.89° C 89% 1009.8 hPa 0 mm - 353 W/m² -
1778092294 18.33° C 90% 1009.9 hPa 0 mm - 424 W/m² -
1778091992 18.33° C 90% 1010 hPa 0 mm - 310 W/m² -
1778091688 17.78° C 93% 1010.2 hPa 0 mm - 282 W/m² -
1778091386 17.22° C 94% 1010.1 hPa 0 mm - 249 W/m² -
1778091083 17.22° C 95% 1009.8 hPa 0 mm - 193 W/m² -
1778090780 17.22° C 95% 1010.3 hPa 0 mm - 110 W/m² -
1778090477 17.22° C 95% 1010 hPa 0 mm - 89 W/m² -
1778090173 17.22° C 95% 1010.3 hPa 0 mm - 33 W/m² -
1778089868 17.22° C 94% 1010.3 hPa 0 mm - 71 W/m² -
1778089568 17.22° C 93% 1010.7 hPa 0 mm - 74 W/m² -
1778089263 17.22° C 93% 1010.5 hPa 0 mm - 37 W/m² -
1778088961 17.78° C 92% 1010.6 hPa 0 mm - 31 W/m² -

* Rain latest hour (hover to see other rain measurements)
** Current wind speed in m/s (hover to see current wind gust speed)